Погода в Куито

Ангола     12°22′45″S   16°56′23″E
темп.,
°C
ветер,
м/с
пор.,
м/с
влажн.,
%
обл.,
%
осадки,
мм/ч
давл.,
гПа
погр.,
м
7 марта, вс
вс701:00+15ююз119298 2.4 101623
04:00+14зюз119028 0.0 101423
07:00+16ююз118735 0.0 101672
10:00+22юв245840 0.0 1015780
13:00+25юв344936 0.0 10111964
16:00+24юв366042 0.1 10101730
19:00+17ююз128755 0.9 101349
22:00+17ю1181100 0.0 101623
8 марта, пн
пн801:00+15ююв129189 0.1 101523
04:00+14ююв119242 0.1 101423
07:00+16юз018821 0.1 101535
10:00+23в34540 0.1 10141501
13:00+25ююв34450 0.1 10101951
16:00+24ююв34522 0.0 10081874
19:00+17сз11651 0.0 101123
22:00+17ююз22677 0.0 101433
9 марта, вт
вт901:00+15юв287835 0.0 1013181
04:00+18в257275 0.0 1013149
07:00+16ссз018369 0.0 101549
10:00+23св22560 0.1 10131287
13:00+23в225727 0.2 10101435
16:00+22в127071 0.2 1008493
19:00+17ссз238654 0.8 101229
22:00+15сз12911 0.0 101524
10 марта, ср
ср1001:00+15зюз22936 0.0 101455
04:00+15зюз118865 0.0 101323
07:00+17сз128582 0.0 101541
10:00+23в226768 0.3 1014565
13:00+22в117481 2.3 1011462
16:00+22ссз117493 5.3 1009278
19:00+17зсз238784 5.6 101252
22:00+16ю249772 1.4 1014126
11 марта, чт
чт1101:00+17ююз229286 1.6 101477
04:00+16ю1292100 0.0 101332
07:00+17ююв1293100 0.0 1014126
10:00+21в367338 0.4 1014608
13:00+24в356832 0.8 10101045
16:00+22в248081 4.1 1008465
19:00+17с239291 7.7 101274
22:00+16сз1292100 1.4 101424